When you browse on this site, cookies collect data to enhance your experience and personalize the content and advertising you see.
Visit our Privacy Policy to learn more. By continuing to use the site, you agree to this use of cookies and data.
  • In Hungary
  • List of Countries
  • For 7 days
  • Water Temperature
  • Weather Map
  • News
  • Weather Widgets
  • user-avatar
    Login

    Hourly Weather Suomussalmi

    Today, 20 August, Tuesday

    Time Temperature Precipitation Wind Pressure Humidity
    00:00 +13°C° 0 mm 3 mps 737 mmHg 97%
    01:00 +14°C° 0 mm 2 mps 737 mmHg 97%
    02:00 +13°C° 0 mm 2 mps 737 mmHg 98%
    03:00 +12°C° 0 mm 2 mps 738 mmHg 98%
    04:00 +11°C° 0 mm 3 mps 738 mmHg 98%
    05:00 +10°C° 0 mm 3 mps 738 mmHg 98%
    06:00 +11°C° 0 mm 3 mps 739 mmHg 93%
    07:00 +13°C° 0 mm 3 mps 739 mmHg 89%
    08:00 +14°C° 0 mm 3 mps 739 mmHg 84%
    09:00 +17°C° 0 mm 4 mps 739 mmHg 74%
    10:00 +17°C° 0 mm 5 mps 740 mmHg 64%
    11:00 +20°C° 0 mm 5 mps 740 mmHg 54%
    12:00 +20°C° 0.1 mm 5 mps 740 mmHg 55%
    13:00 +20°C° 0.1 mm 5 mps 740 mmHg 55%
    14:00 +20°C° 0 mm 5 mps 741 mmHg 54%
    15:00 +20°C° 0.3 mm 4 mps 741 mmHg 59%
    16:00 +19°C° 0.3 mm 4 mps 741 mmHg 64%
    17:00 +19°C° 0.3 mm 4 mps 741 mmHg 69%
    18:00 +17°C° 0.2 mm 3 mps 741 mmHg 75%
    19:00 +16°C° 0.2 mm 3 mps 741 mmHg 81%
    20:00 +14°C° 0.2 mm 2 mps 741 mmHg 88%
    21:00 +14°C° 0 mm 2 mps 741 mmHg 91%
    22:00 +13°C° 0 mm 2 mps 742 mmHg 93%
    23:00 +12°C° 0 mm 2 mps 742 mmHg 96%

    Tomorrow, 21 August, Wednesday

    Time Temperature Precipitation Wind Pressure Humidity
    00:00 +12°C° 0 mm 2 mps 742 mmHg 96%
    01:00 +12°C° 0 mm 2 mps 742 mmHg 97%
    02:00 +10°C° 0 mm 2 mps 742 mmHg 97%
    03:00 +10°C° 0 mm 2 mps 743 mmHg 97%
    04:00 +10°C° 0 mm 2 mps 743 mmHg 97%
    05:00 +10°C° 0 mm 3 mps 743 mmHg 97%
    06:00 +11°C° 0 mm 3 mps 743 mmHg 93%
    07:00 +13°C° 0 mm 3 mps 743 mmHg 89%
    08:00 +14°C° 0 mm 3 mps 743 mmHg 85%
    09:00 +15°C° 0.1 mm 4 mps 743 mmHg 78%
    10:00 +18°C° 0.1 mm 4 mps 744 mmHg 70%
    11:00 +19°C° 0.1 mm 4 mps 744 mmHg 62%
    12:00 +19°C° 0.2 mm 4 mps 744 mmHg 60%
    13:00 +20°C° 0.2 mm 4 mps 743 mmHg 59%
    14:00 +20°C° 0.2 mm 4 mps 743 mmHg 58%
    15:00 +20°C° 0.1 mm 4 mps 743 mmHg 58%
    16:00 +19°C° 0.1 mm 4 mps 743 mmHg 59%
    17:00 +19°C° 0.1 mm 3 mps 743 mmHg 60%
    18:00 +17°C° 0.2 mm 3 mps 743 mmHg 69%
    19:00 +16°C° 0.2 mm 2 mps 743 mmHg 79%
    20:00 +14°C° 0.2 mm 2 mps 743 mmHg 88%
    21:00 +13°C° 0.1 mm 2 mps 743 mmHg 90%
    22:00 +12°C° 0.1 mm 1 mps 743 mmHg 92%
    23:00 +12°C° 0.1 mm 1 mps 743 mmHg 94%

    Day after tomorrow, 22 August, Thursday

    Time Temperature Precipitation Wind Pressure Humidity
    00:00 +11°C° 0 mm 1 mps 742 mmHg 95%
    01:00 +11°C° 0 mm 1 mps 742 mmHg 95%
    02:00 +11°C° 0 mm 1 mps 742 mmHg 95%
    03:00 +11°C° 0 mm 1 mps 742 mmHg 95%
    04:00 +11°C° 0 mm 1 mps 742 mmHg 95%
    05:00 +11°C° 0 mm 1 mps 742 mmHg 96%
    06:00 +12°C° 0.1 mm 1 mps 742 mmHg 93%
    07:00 +13°C° 0.1 mm 2 mps 742 mmHg 90%
    08:00 +14°C° 0.1 mm 2 mps 742 mmHg 88%
    09:00 +15°C° 0 mm 2 mps 742 mmHg 82%
    10:00 +16°C° 0 mm 3 mps 742 mmHg 76%
    11:00 +17°C° 0 mm 3 mps 742 mmHg 70%
    12:00 +17°C° 0.1 mm 4 mps 742 mmHg 68%
    13:00 +17°C° 0.1 mm 4 mps 742 mmHg 65%
    14:00 +18°C° 0.1 mm 4 mps 742 mmHg 62%
    15:00 +18°C° 0 mm 4 mps 742 mmHg 58%
    16:00 +18°C° 0 mm 4 mps 742 mmHg 54%
    17:00 +18°C° 0 mm 4 mps 742 mmHg 50%
    18:00 +16°C° 0 mm 3 mps 742 mmHg 58%
    19:00 +13°C° 0 mm 3 mps 742 mmHg 66%
    20:00 +12°C° 0 mm 2 mps 742 mmHg 73%
    21:00 +10°C° 0 mm 2 mps 742 mmHg 77%
    22:00 +9°C° 0 mm 2 mps 743 mmHg 80%
    23:00 +9°C° 0 mm 3 mps 743 mmHg 84%

    23 August, Friday

    Time Temperature Precipitation Wind Pressure Humidity
    00:00 +8°C° 0 mm 2 mps 743 mmHg 86%
    01:00 +8°C° 0 mm 2 mps 743 mmHg 89%
    02:00 +8°C° 0 mm 2 mps 743 mmHg 92%
    03:00 +8°C° 0 mm 2 mps 743 mmHg 93%
    04:00 +7°C° 0 mm 2 mps 743 mmHg 93%
    05:00 +7°C° 0 mm 2 mps 743 mmHg 94%
    06:00 +9°C° 0 mm 2 mps 743 mmHg 87%
    07:00 +10°C° 0 mm 2 mps 743 mmHg 80%
    08:00 +13°C° 0 mm 2 mps 743 mmHg 73%
    09:00 +14°C° 0 mm 2 mps 743 mmHg 67%
    10:00 +16°C° 0 mm 3 mps 743 mmHg 61%
    11:00 +17°C° 0 mm 3 mps 743 mmHg 54%
    12:00 +16°C° 0.2 mm 3 mps 743 mmHg 63%
    13:00 +16°C° 0.2 mm 3 mps 742 mmHg 72%
    14:00 +14°C° 0.2 mm 3 mps 742 mmHg 81%
    15:00 +14°C° 0.2 mm 3 mps 742 mmHg 84%
    16:00 +13°C° 0.2 mm 3 mps 742 mmHg 87%
    17:00 +14°C° 0.2 mm 2 mps 741 mmHg 90%
    18:00 +14°C° 0.2 mm 2 mps 741 mmHg 92%
    19:00 +13°C° 0.2 mm 2 mps 741 mmHg 93%
    20:00 +13°C° 0.2 mm 2 mps 740 mmHg 95%
    21:00 +12°C° 0.1 mm 2 mps 740 mmHg 96%
    22:00 +12°C° 0.1 mm 2 mps 740 mmHg 97%
    23:00 +11°C° 0.1 mm 1 mps 740 mmHg 97%

    24 August, Saturday

    Time Temperature Precipitation Wind Pressure Humidity
    00:00 +11°C° 0 mm 1 mps 740 mmHg 97%
    01:00 +10°C° 0 mm 1 mps 739 mmHg 97%
    02:00 +10°C° 0 mm 1 mps 739 mmHg 97%
    03:00 +9°C° 0 mm 2 mps 739 mmHg 97%
    04:00 +9°C° 0 mm 2 mps 738 mmHg 98%
    05:00 +9°C° 0 mm 2 mps 738 mmHg 98%
    06:00 +10°C° 0 mm 2 mps 738 mmHg 96%
    07:00 +10°C° 0 mm 2 mps 738 mmHg 94%
    08:00 +12°C° 0 mm 2 mps 738 mmHg 92%
    09:00 +12°C° 0.2 mm 2 mps 737 mmHg 91%
    10:00 +13°C° 0.2 mm 1 mps 737 mmHg 90%
    11:00 +13°C° 0.2 mm 1 mps 737 mmHg 89%
    12:00 +13°C° 0.4 mm 1 mps 737 mmHg 87%
    13:00 +13°C° 0.4 mm 1 mps 737 mmHg 85%
    14:00 +14°C° 0.4 mm 2 mps 738 mmHg 83%
    15:00 +14°C° 0.3 mm 2 mps 738 mmHg 83%
    16:00 +13°C° 0.3 mm 3 mps 738 mmHg 84%
    17:00 +13°C° 0.3 mm 4 mps 739 mmHg 84%
    18:00 +12°C° 0.1 mm 4 mps 739 mmHg 86%
    19:00 +11°C° 0.1 mm 4 mps 740 mmHg 89%
    20:00 +9°C° 0.1 mm 5 mps 741 mmHg 91%
    21:00 +8°C° 0 mm 5 mps 742 mmHg 91%
    22:00 +8°C° 0 mm 4 mps 742 mmHg 90%
    23:00 +7°C° 0 mm 4 mps 743 mmHg 89%

    25 August, Sunday

    Time Temperature Precipitation Wind Pressure Humidity
    00:00 +7°C° 0 mm 4 mps 744 mmHg 90%
    01:00 +7°C° 0 mm 3 mps 744 mmHg 90%
    02:00 +5°C° 0 mm 3 mps 745 mmHg 91%
    03:00 +4°C° 0 mm 3 mps 745 mmHg 92%
    04:00 +4°C° 0 mm 3 mps 746 mmHg 93%
    05:00 +4°C° 0 mm 2 mps 746 mmHg 94%
    06:00 +5°C° 0 mm 2 mps 747 mmHg 90%
    07:00 +7°C° 0 mm 2 mps 747 mmHg 85%
    08:00 +8°C° 0 mm 3 mps 748 mmHg 81%
    09:00 +9°C° 0 mm 3 mps 748 mmHg 73%
    10:00 +10°C° 0 mm 3 mps 748 mmHg 65%
    11:00 +12°C° 0 mm 3 mps 748 mmHg 58%
    12:00 +12°C° 0 mm 3 mps 748 mmHg 55%
    13:00 +12°C° 0 mm 3 mps 748 mmHg 52%
    14:00 +13°C° 0 mm 3 mps 748 mmHg 49%
    15:00 +14°C° 0 mm 2 mps 748 mmHg 50%
    16:00 +13°C° 0 mm 2 mps 748 mmHg 51%
    17:00 +13°C° 0 mm 2 mps 748 mmHg 51%
    18:00 +12°C° 0 mm 1 mps 748 mmHg 58%
    19:00 +10°C° 0 mm 1 mps 748 mmHg 64%
    20:00 +7°C° 0 mm 0 mps 748 mmHg 71%
    21:00 +8°C° 0 mm 1 mps 748 mmHg 72%
    22:00 +7°C° 0 mm 1 mps 748 mmHg 74%
    23:00 +7°C° 0 mm 1 mps 748 mmHg 75%
    Show more